Other Surface Observations
Issued by NWS Charleston, SC

Home | Current Version | Previous Version | Text Only | Print | Product List | Glossary On
Versions: 1 2 3 4 5 6 7 8 9 10 11 12 13 14 15 16 17 18 19 20 21 22 23 24 25 26 27 28 29 30 31 32 33 34 35 36 37 38 39 40 41 42 43 44 45 46 47 48 49 50
000
SXUS52 KCHS 300828
OSOCHS

MARINE OBSERVATIONS
NATIONAL WEATHER SERVICE CHARLESTON SC
400 AM EDT FRI SEP 30 2016

...DOWNTOWN CHARLESTON AND HARBOR...

CITY           SKY/WX    TMP DP  RH WIND       PRES   REMARKS
WATERFRONT PRK   N/A     75  74  97 CALM      29.92F

...LAKE MOULTRIE...

CITY           SKY/WX    TMP DP  RH WIND       PRES   REMARKS
PINOPOLIS        N/A     72  70  94 S5        29.84F

...LAKE AND SUPPLEMENTAL COASTAL OBSERVATIONS...

STATION/POSITION TIME  TEMP    WIND        PRES    WAVE   SWELL
                       AIR SEA DIR/SP/G            HT/PER HT/PER/DIR
                 (UTC) (F)     (DEG/KT/KT) (MB)    (FT/S) (FT/S/D)
FORT PULASKI     0800   75 81  290/  9/ 11 1013.8
SAPELO ISLAND    0800   75     280/  7     1014.0
WINYAH BAY       0730   79     200/  6     1013.0F
LAKE MURRAY      0820   69     300/  3/  5 1013.9S
ACE BASIN NERRS  0745   70        CALM     1014.0S


...C-MAN AND BUOY OBSERVATIONS...

STATION/POSITION TIME  TEMP    WIND        PRES    WAVE   SWELL
                       AIR SEA DIR/SP/G            HT/PER HT/PER/DIR
                 (UTC) (F)     (DEG/KT/KT) (MB)    (FT/S) (FT/S/D)
BUOY 41004       0750   82 82  190/ 14/ 16 1013.3F   4/ 5   2/110/10
BUOY 41008       0750   80 82  250/ 16/ 17 1013.3F   3/ 5   2/ 60/11
FOLLY BEACH CMAN 0800   77     210/  4/  5 1013.4F
CAPERS NS BUOY   0808   79 81  220/  6/ 10 1013.3F
FRIPP NS BUOY    0808   79 81  260/ 14/ 17 1013.3F
5E ST. MARYS GA  0801      82                N/A     2/11


STATION/POSITION TIME  TEMP    WIND        PRES    WAVE   SWELL
                       AIR SEA DIR/SP/G            HT/PER HT/PER/DIR
                 (UTC) (F)     (DEG/KT/KT) (MB)    (FT/S) (FT/S/D)
FRYING PAN BUOY  0810   81 82  170/ 10/ 14 1014.5
BUOY 41025       0750   79 76  200/  6/  6 1016.1F   4/ 9   3/ 30/ 9
CAPE LOOKOUT NC  0800   79     170/  7/  8 1015.4S
BUOY 41002       0750   79 83  270/  6/ 10 1017.0F   3/10   3/ 80/10
BUOY 41010       NOT AVBL
ST AUGUSTINE FL  0800   74 82  230/  5/  6 1015.6F

$$




USA.gov is the U.S. government's official web portal to all federal, state and local government web resources and services.